Ames, IA

3:13 AM CDT on May 24, 2017 (GMT -0500)
Ames Municipal

Weather History for KAMW - April, 2013

Change the Weather History Date:

Thursday, April 18, 2013

  Actual Average Record
Temperature  
Mean Temperature 37 °F 50 °F  
Max Temperature 41 °F 62 °F 88 °F (2002)
Min Temperature 33 °F 39 °F 26 °F (2001)
Degree Days  
Heating Degree Days 28 15  
Month to date heating degree days 407 319  
Since 1 July heating degree days 6510 6475  
Cooling Degree Days 0 0  
Month to date cooling degree days 0 0  
Year to date cooling degree days 0 0  
Moisture  
Dew Point 35 °F    
Average Humidity 91    
Maximum Humidity 100    
Minimum Humidity 82    
Precipitation  
Precipitation 0.81 in 0.12 in 1.10 in (2015)
Month to date precipitation 5.40 1.73  
Sea Level Pressure  
Sea Level Pressure 29.62 in    
Wind  
Wind Speed 17 mph (NNW)    
Max Wind Speed 25 mph    
Max Gust Speed 35 mph    
Visibility 5 miles    
Events Rain , Snow    
T = Trace of Precipitation, MM = Missing Value Source: NWS Daily Summary

Daily Weather History Graph

Daily Weather History Graph

Search for Another Location

Airport or City:

Trip Planner

Search our weather history database for the weather conditions in past years. The results will help you decide how hot, cold, wet, or windy it might be!

Date:

Astronomy

Apr. 18, 2013 Rise Set
Actual Time 6:28 AM CDT 7:59 PM CDT
Civil Twilight 5:59 AM CDT 8:28 PM CDT
Nautical Twilight 5:24 AM CDT 9:04 PM CDT
Astronomical Twilight 4:47 AM CDT 9:41 PM CDT
Moon 12:40 PM CDT (4/18) 2:15 AM CDT (4/18)
Length of Visible Light 14h 28m
Length of Day
13h 30m
First Quarter, 52% of the Moon is Illuminated
Apr 18
First Quarter
Apr 25
Full
May 2
Last Quarter
May 9
New
May 17
First Quarter

Hourly Weather History & Observations

Time (CDT) Temp. Windchill Dew Point Humidity Pressure Visibility Wind Dir Wind Speed Gust Speed Precip Events Conditions
12:53 AM 41.0 °F 32.5 °F 39.9 °F 96% 29.70 in 7.0 mi North 17.3 mph - N/A   Overcast
1:48 AM 39.2 °F 32.5 °F 39.2 °F 100% 29.73 in 3.0 mi NE 10.4 mph - 0.01 in Rain Light Rain
1:53 AM 39.9 °F 33.4 °F 39.0 °F 97% 29.74 in 2.0 mi NNE 10.4 mph - 0.04 in Rain Heavy Rain
2:13 AM 39.2 °F 31.6 °F 39.2 °F 100% 29.71 in 3.0 mi North 12.7 mph - 0.04 in Rain Light Rain
2:53 AM 39.9 °F 31.8 °F 39.0 °F 97% 29.68 in 5.0 mi North 15.0 mph - 0.06 in Rain Light Rain
3:53 AM 39.0 °F 29.9 °F 39.0 °F 100% 29.67 in 4.0 mi North 17.3 mph - 0.19 in Rain Rain
4:13 AM 39.2 °F 29.8 °F 37.4 °F 93% 29.67 in 2.0 mi NNW 18.4 mph 25.3 mph 0.12 in Rain Heavy Rain
4:33 AM 37.4 °F 27.5 °F 37.4 °F 100% 29.67 in 3.0 mi North 18.4 mph 26.5 mph 0.21 in Rain Rain
4:53 AM 37.9 °F 28.5 °F 37.0 °F 97% 29.67 in 5.0 mi North 17.3 mph - 0.25 in Rain Rain
5:53 AM 37.0 °F 27.4 °F 36.0 °F 96% 29.63 in 7.0 mi NNE 17.3 mph 20.7 mph 0.05 in   Overcast
6:53 AM 37.0 °F 27.7 °F 36.0 °F 96% 29.64 in 10.0 mi NNE 16.1 mph - N/A   Overcast
7:53 AM 37.9 °F 30.5 °F 36.0 °F 93% 29.62 in 9.0 mi NNE 11.5 mph - N/A   Overcast
8:11 AM 37.4 °F 30.3 °F 37.4 °F 100% 29.61 in 2.0 mi NNE 10.4 mph - 0.00 in Rain Light Rain
8:33 AM 37.4 °F 30.8 °F 37.4 °F 100% 29.59 in 1.5 mi NNE 9.2 mph - 0.00 in   Overcast
8:53 AM 37.0 °F 30.4 °F 37.0 °F 100% 29.60 in 1.2 mi North 9.2 mph - 0.01 in   Overcast
9:05 AM 37.4 °F 32.1 °F 37.4 °F 100% 29.59 in 2.5 mi North 6.9 mph - 0.01 in   Overcast
9:16 AM 37.4 °F 31.4 °F 37.4 °F 100% 29.58 in 1.2 mi North 8.1 mph - 0.02 in Rain Light Rain
9:42 AM 37.4 °F 29.8 °F 37.4 °F 100% 29.56 in 3.0 mi North 11.5 mph - 0.04 in Rain Light Rain
9:53 AM 37.9 °F 30.0 °F 37.0 °F 97% 29.56 in 4.0 mi North 12.7 mph - 0.04 in   Overcast
10:04 AM 37.4 °F 28.5 °F 37.4 °F 100% 29.55 in 2.0 mi North 15.0 mph - 0.01 in Rain Light Rain
10:14 AM 37.4 °F 28.9 °F 37.4 °F 100% 29.55 in 1.5 mi North 13.8 mph - 0.02 in Rain Light Rain
10:32 AM 37.4 °F 29.3 °F 37.4 °F 100% 29.56 in 2.0 mi NNW 12.7 mph - 0.04 in Rain Light Rain
10:45 AM 37.4 °F 27.8 °F 37.4 °F 100% 29.55 in 1.5 mi NNW 17.3 mph - 0.07 in Rain Light Rain
10:53 AM 37.9 °F 29.2 °F 37.0 °F 97% 29.57 in 1.5 mi NNW 15.0 mph - 0.08 in Rain Light Rain
11:16 AM 37.4 °F 29.3 °F 37.4 °F 100% 29.57 in 2.0 mi NNW 12.7 mph - 0.03 in Rain Light Rain
11:44 AM 37.4 °F 28.2 °F 37.4 °F 100% 29.56 in 3.0 mi NNW 16.1 mph 24.2 mph 0.05 in   Overcast
11:53 AM 37.9 °F 28.9 °F 37.0 °F 97% 29.56 in 2.5 mi NNW 16.1 mph 28.8 mph 0.05 in   Overcast
12:11 PM 37.4 °F 26.6 °F 35.6 °F 93% 29.55 in 1.5 mi NW 21.9 mph 27.6 mph 0.01 in Rain Light Rain
12:39 PM 37.4 °F 26.9 °F 35.6 °F 93% 29.55 in 1.8 mi NW 20.7 mph 27.6 mph 0.01 in   Overcast
12:50 PM 37.4 °F 26.4 °F 35.6 °F 93% 29.55 in 1.8 mi NNW 23.0 mph 33.4 mph 0.01 in   Overcast
12:53 PM 37.0 °F 26.2 °F 36.0 °F 96% 29.56 in 1.8 mi NNW 21.9 mph 33.4 mph 0.01 in   Overcast
1:00 PM 37.4 °F 26.4 °F 35.6 °F 93% 29.55 in 2.0 mi NNW 23.0 mph 29.9 mph N/A   Overcast
1:09 PM 37.4 °F 26.1 °F 35.6 °F 93% 29.56 in 3.0 mi NNW 24.2 mph 29.9 mph N/A   Overcast
1:53 PM 37.9 °F 28.2 °F 35.1 °F 89% 29.57 in 8.0 mi NNW 18.4 mph 26.5 mph N/A   Overcast
2:11 PM 37.4 °F 27.2 °F 35.6 °F 93% 29.57 in 2.5 mi NW 19.6 mph 25.3 mph N/A   Overcast
2:53 PM 37.0 °F 26.4 °F 35.1 °F 93% 29.58 in 7.0 mi NW 20.7 mph 29.9 mph N/A   Overcast
3:17 PM 37.4 °F 26.9 °F 33.8 °F 87% 29.57 in 10.0 mi NW 20.7 mph 27.6 mph N/A   Overcast
3:37 PM 37.4 °F 27.2 °F 33.8 °F 87% 29.57 in 10.0 mi NW 19.6 mph 27.6 mph N/A   Overcast
3:53 PM 37.0 °F 27.0 °F 34.0 °F 89% 29.59 in 10.0 mi NW 18.4 mph 26.5 mph N/A   Overcast
4:53 PM 36.0 °F 25.3 °F 32.0 °F 86% 29.60 in 9.0 mi WNW 19.6 mph 33.4 mph 0.00 in   Overcast
5:53 PM 35.1 °F 24.8 °F 30.9 °F 85% 29.63 in 6.0 mi WNW 17.3 mph 27.6 mph 0.02 in   Overcast
6:53 PM 35.1 °F 23.5 °F 30.9 °F 85% 29.64 in 10.0 mi WNW 21.9 mph 29.9 mph N/A   Overcast
7:53 PM 35.1 °F 24.1 °F 30.9 °F 85% 29.66 in 9.0 mi WNW 19.6 mph 28.8 mph 0.00 in Snow Light Snow
8:53 PM 35.1 °F 24.5 °F 30.9 °F 85% 29.69 in 10.0 mi WNW 18.4 mph 29.9 mph 0.00 in   Overcast
9:35 PM 33.8 °F 22.5 °F 30.2 °F 87% 29.70 in 7.0 mi NW 19.6 mph 28.8 mph 0.00 in Snow Light Snow
9:40 PM 33.8 °F 22.2 °F 30.2 °F 87% 29.70 in 2.0 mi NW 20.7 mph 28.8 mph 0.00 in Snow Light Snow
9:53 PM 33.1 °F 23.4 °F 32.0 °F 96% 29.72 in 1.8 mi NW 13.8 mph - 0.01 in Snow Light Snow
10:02 PM 33.8 °F 23.2 °F 30.2 °F 87% 29.70 in 2.5 mi WNW 17.3 mph 23.0 mph 0.00 in Snow Light Snow
10:09 PM 33.8 °F 22.5 °F 30.2 °F 87% 29.70 in 6.0 mi WNW 19.6 mph - 0.00 in Snow Light Snow
10:16 PM 33.8 °F 22.5 °F 30.2 °F 87% 29.70 in 9.0 mi WNW 19.6 mph 25.3 mph 0.00 in   Overcast
10:53 PM 34.0 °F 22.7 °F 30.0 °F 85% 29.71 in 10.0 mi WNW 19.6 mph 28.8 mph 0.00 in   Overcast
11:53 PM 33.1 °F 21.9 °F 30.0 °F 89% 29.70 in 10.0 mi WNW 18.4 mph 28.8 mph N/A   Overcast